Home > Weather > Labrador City > Past weeks

Flag for Canada Weather for the Past 2 Weeks in Labrador City, Newfoundland and Labrador, Canada

Now
28 °F

Scattered clouds.


Feels Like: 17 °F
Forecast: N/A
Wind: 16 mph from North

Location: Wabush Lake

Current Time: Apr 28, 2016 at 7:10:42 PM

Latest Report: Apr 28, 2016 at 6:00 PM


Visibility: 15 mi

Pressure: 30.04 "Hg (28.00 "Hg at 558m altitude)

Humidity: 47%

Dew Point: 10 °F

Location of Labrador CityLocation

Historic Weather in Labrador City — Graph

°F

Labrador City Temperature Yesterday

Maximum temperature yesterday: 19 °F (at 7:00 PM)
Minimum temperature yesterday: -2 °F (at 6:00 AM)
Average temperature yesterday: 10 °F

High & Low Weather Summary for the Past Weeks

 TemperatureHumidityPressure
High55 °F (Apr 21, 5:00 PM)100% (Apr 23, 3:53 AM)30.74 "Hg (Apr 23, 3:53 AM)
Low-17 °F (Apr 15, 6:00 AM)25% (Apr 15, 3:00 PM)29.69 "Hg (Apr 26, 4:00 PM)
Average21 °F67%30.10 "Hg
* Reported Apr 13 5:00 PM — Apr 28 5:00 PM, Labrador City, Weather by CustomWeather, © 2016

Note: Actual official high and low records may vary slightly from our data, if they occured in-between our weather recording intervals... More about our weather records

Advertising

Labrador City Weather History for the Previous 24 Hours

Scroll right to see more
 ConditionsComfort  
Time TempWeatherWind HumidityBarometerVisibility
5:00 PM
Thu, Apr 28
30 °FScattered clouds.15 mph43%30.04 "Hg15 mi
4:00 PM28 °FPassing clouds.16 mph40%30.03 "Hg15 mi
3:00 PM28 °FPassing clouds.18 mph47%30.02 "Hg15 mi
2:00 PM27 °FLight snow. Broken clouds.16 mph59%30.02 "Hg15 mi
1:00 PM27 °FLight snow. More clouds than sun.18 mph64%30.00 "Hg10 mi
12:00 PM23 °FLight snow. Mostly cloudy.20 mph80%29.99 "Hg2 mi
11:00 AM23 °FLight snow. Mostly cloudy.17 mph80%29.97 "Hg2 mi
10:53 AM23 °FLight snow. Mostly cloudy.15 mph80%29.97 "Hg2 mi
10:00 AM21 °FLight snow. More clouds than sun.16 mph80%29.96 "Hg8 mi
9:00 AM18 °FLight snow. Overcast.12 mph86%29.95 "Hg10 mi
8:00 AM14 °FLight snow. More clouds than sun.16 mph85%29.93 "Hg6 mi
7:00 AM12 °FLight snow. Mostly cloudy.14 mph85%29.92 "Hg3 mi
6:00 AM10 °FLight snow. Overcast.10 mph85%29.90 "Hg10 mi
5:00 AM10 °FLight snow. Mostly cloudy.13 mph79%29.90 "Hg9 mi
4:58 AM10 °FLight snow. Mostly cloudy.14 mph79%29.90 "Hg9 mi
4:00 AM10 °FLight snow. Mostly cloudy.13 mph79%29.89 "Hg9 mi
3:00 AM10 °FLight snow. Overcast.9 mph72%29.90 "Hg9 mi
2:51 AM10 °FLight snow. Mostly cloudy.10 mph72%29.90 "Hg6 mi
2:00 AM10 °FOvercast.6 mph67%29.90 "Hg9 mi
1:00 AM12 °FPassing clouds.10 mph67%29.90 "Hg9 mi
12:00 AM12 °FMostly cloudy.12 mph67%29.91 "Hg9 mi
11:00 PM
Wed, Apr 27
12 °FMostly cloudy.9 mph73%29.92 "Hg9 mi
10:00 PM12 °FBroken clouds.8 mph73%29.91 "Hg15 mi
9:00 PM16 °FCloudy.8 mph57%29.90 "Hg15 mi
8:00 PM16 °FPartly sunny.7 mph53%29.88 "Hg15 mi
7:00 PM19 °FBroken clouds.9 mph53%29.87 "Hg15 mi
Weather by CustomWeather, © 2016

See weather overviewHow to use our weather pages